Location: Elstree
(51.6403°N, 0.2969°W)
Time: 08:48:10
(UTC+00:00)

Envisat - Pass Details

Date: 08 December 2022
Orbit: 763 x 765 km, 98.2° (Epoch: 04 February)

Event Time Altitude Azimuth Distance (km) Brightness Sun altitude
Rises 06:10:58 0° 4° (N) 3,248 6.1 -14.9°
Reaches altitude 10° 06:13:59 10° 346° (NNW) 2,316 5.2 -14.5°
Enters shadow 06:16:21 17° 319° (NW) 1,890 4.5 -14.2°
